THOR ABLESTAR DEB, 252

Orbit data source: Space-Track

THOR ABLESTAR DEB, 252 is space debris in LEO originally from a launch on Thu, 29 Jun 1961 UTC launched from the Air Force Eastern Test Range (AFETR). Debris objects in space refer to the collection of defunct objects orbiting the Earth. Examples of debris include non-operational satellites, rocket bodies, and fragments generated from explosions, collisions, or faulty payload assembly.

Loading next visibility...
Identifier
252, 1961-015CD
Orbit
LEO
Country
Flag of USUS
Related business
Manufacturer
Unknown
Mission
Spacecraft
Bus & Motor
Unknown
Mass
Unknown
Launch date (UTC)
1961-06-29 (64 years ago)
Launch vehicle
Unknown
Launch site
Air Force Eastern Test Range (AFETR)
Object type
Payload
Rocket body
Debris
Shape & HBR
Unknown
Radar Cross Section
Small (<0.1 m²)

Expand to show TLE details & history
Last TLE update: 1 day ago

TLE from 1 day ago
0 THOR ABLESTAR DEB
1 00252U 61015CD  25259.35033970  .00000324  00000-0  39323-3 0  9997
2 00252  67.0768 113.2632 0049072  38.2563 133.8755 13.77614556213601
Epoch: 2025-09-16T08:24Z
TLE epoch observation values (Epoch: 2025-09-16T08:24:29.35Z)
Latitude
6.81385°
Longitude
168.71759°
Altitude
998.913 km
Speed
7.341 km/s
True Right ascension
19h 21m 31s
True Declination
6° 46' 29"
Sunlit
Object was in daylight at epoch
Visualization orbit readout
Latitude
Unknown
Longitude
Unknown
Altitude
Unknown
Speed
Unknown
Apparent Right ascension
Unknown
Apparent Declination
Unknown
Sunlit
N/A
Visualization observer readout
Local Sidereal Time
01:02:17
Azimuth
Unknown
Elevation
Unknown
Doppler factor
Unknown
Orbital elements
Apogee altitude
1,006.795 km
Perigee altitude
934.67 km
Semi-major axis
7,348.869 km
Eccentricity
0.00491
Inclination
67.0768°
RAAN
113.2632°
Arg. of periapsis
38.2563°
True anomaly
134.27913°
Mean anomaly
133.8755°
Eccentric anomaly
134.07749°
Mean motion
3.44518 °/min
Orbital period
104.49 mins
BSTAR
0.00039323
Loading maneuver chart data...
Computing Atmospheric mass density...

Documentation

Showing up to 5 results
|